Location: *
(17.3280°S, 114.7300°W)
Time: 14:48:25
(UTC+00:00)

Hubble Space Telescope - Pass Details

Date: 05 November 2020
Orbit: 536 x 540 km, 28.5° (Epoch: 29 November)

Event Time Altitude Azimuth Distance (km) Brightness Sun altitude
Rises 03:37:57 0° 270° (W) 2,675 5.3 -25.5°
Reaches altitude 10° 03:40:24 10° 259° (WSW) 1,787 4.4 -26.0°
Maximum altitude 03:44:04 30° 196° (SSW) 976 2.4 -26.8°
Enters shadow 03:44:25 30° 186° (S) 987 2.3 -26.9°
